Regional Weather Roundup
Issued by NWS Nashville, TN

Home | Current Version | Previous Version | Text Only | Print | Product List | Glossary On
Versions: 1 2 3 4 5 6 7 8 9 10 11 12 13 14 15 16 17 18 19 20 21 22 23 24 25 26 27 28 29 30 31 32 33 34 35 36 37 38 39 40 41 42 43 44 45 46 47 48 49 50
000
ASUS44 KOHX 241710
RWROHX
MIDDLE TENNESSEE HOURLY WEATHER ROUNDUP
NATIONAL WEATHER SERVICE NASHVILLE TN
1100 AM CST FRI FEB 24 2017

NOTE: "FAIR" INDICATES FEW OR NO CLOUDS BELOW 12,000 FEET WITH
NO SIGNIFICANT WEATHER AND/OR OBSTRUCTIONS TO VISIBILITY.

* THESE REPORTS ARE NOT UNDER NWS QUALITY CONTROL AND MAY NOT
  REPORT WEATHER SUCH AS PRECIPITATION AND FOG.


TNZ005>011-023>034-057-059-062>066-078-080-241800
...NORTHERN MIDDLE TENNESSEE...

CITY           SKY/WX    TMP DP  RH WIND       PRES   REMARKS
CLARKSVILLE    SUNNY     75  54  47 S18G31    29.66F
CROSSVILLE     PTSUNNY   67  54  63 S12G22    29.85F
GALLATIN       PTSUNNY   73  55  53 S15G31    29.76F
DICKSON        MOSUNNY   73  53  49 S22G32    29.69F
NASHVILLE      PTSUNNY   77  54  44 S23G33    29.74F
PORTLAND       PTSUNNY   73  57  56 S23G31    29.71F
SMYRNA         PTSUNNY   75  58  55 S22G28    29.75F
SPARTA         MOSUNNY   75  55  50 S23G33    29.78F
SPRINGFIELD    SUNNY     75  54  46 S24G33    29.68F
WEST NASHVILLE SUNNY     73  54  49 S21       29.71F
$$
TNZ056-058-060-061-075>077-079-093>097-241800
...SOUTHERN MIDDLE TENNESSEE...

CITY           SKY/WX    TMP DP  RH WIND       PRES   REMARKS
COLUMBIA       MOSUNNY   73  61  64 S20       29.73S
FAYETTEVILLE   PTSUNNY   73  57  56 S17G29    29.80F
MCMINNVILLE    SUNNY     73  55  53 S15       29.80F
SHELBYVILLE    PTSUNNY   73  59  60 S23       29.78F
TULLAHOMA      MOSUNNY   72  54  53 S15       29.81F
WINCHESTER     MOSUNNY   73  55  53 SW13G24   29.82F
$$


...KEY TO REMARKS...
VSB - VISIBILITY IN MILES
WCI - WIND CHILL INDEX
HX  - HEAT INDEX




USA.gov is the U.S. government's official web portal to all federal, state and local government web resources and services.